Location: Pasadena, ca
(34.1243°N, 118.1037°W)
Time: 10:01:06
(UTC-07:00)

ISS - Visible Passes

Search period start: 23 May 2018 00:00
Search period end: 02 June 2018 00:00
Orbit: 402 x 407 km, 51.6° (Epoch: 24 May)

Date Brightness Start Highest point End Pass type
(mag) Time Alt. Az. Time Alt. Az. Time Alt. Az.
23 May -0.4 02:35:25 10° N 02:36:59 13° NNE 02:38:33 10° ENE visible
23 May -4.0 04:10:33 10° NW 04:13:49 75° SW 04:17:03 10° SE visible
23 May -1.7 20:48:03 10° WSW 20:50:59 30° NW 20:53:56 10° NNE visible
25 May -0.6 20:41:19 10° WNW 20:43:17 15° NNW 20:45:15 10° N visible
31 May -0.3 23:33:54 10° NNW 23:34:10 11° NNW 23:34:10 11° NNW visible
01 Jun -0.9 22:42:19 10° N 22:43:36 13° NNE 22:43:36 13° NNE visible
